Total_Precipitation_Accumulation
0.90 0.99 1.08 1.34 1.54 1.65 1.74 1.80 1.88 1.97 2.21 2.39 2.37 2.30 2.17 1.94 1.81 1.76 1.60 1.42 1.32 1.35 1.31 1.22 1.11 1.02 0.92 0.82 0.76 0.73 0.68 0.62 0.60 0.61 0.52 0.45 0.42 0.39 0.35 0.34 0.34 0.32 0.31
0.78 0.87 0.94 1.08 1.23 1.40 1.58 1.72 1.80 1.91 1.95 2.04 2.27 2.40 2.46 2.31 2.04 1.86 1.73 1.57 1.45 1.41 1.35 1.34 1.31 1.21 1.12 1.06 1.01 0.98 0.92 0.85 0.84 0.83 0.79 0.63 0.48 0.38 0.34 0.35 0.36 0.36 0.36
0.64 0.71 0.79 0.98 1.09 1.20 1.40 1.64 1.77 1.89 1.92 1.97 2.22 2.44 2.60 2.45 2.18 1.85 1.66 1.63 1.61 1.57 1.44 1.41 1.44 1.36 1.26 1.15 1.11 1.11 1.08 1.01 0.97 0.96 1.00 0.86 0.60 0.41 0.32 0.29 0.30 0.34 0.36
0.56 0.59 0.68 0.81 0.92 1.07 1.22 1.36 1.52 1.70 1.88 1.97 2.02 2.08 2.19 2.18 1.97 1.88 1.79 1.78 1.75 1.71 1.62 1.54 1.52 1.48 1.40 1.25 1.20 1.17 1.12 1.09 1.03 0.98 0.90 0.82 0.67 0.62 0.47 0.32 0.30 0.33 0.34
0.56 0.56 0.66 0.78 0.84 0.94 1.17 1.28 1.35 1.53 1.73 1.87 1.95 2.05 2.02 2.05 2.12 2.08 2.00 1.89 1.82 1.76 1.67 1.58 1.56 1.48 1.42 1.37 1.37 1.30 1.26 1.18 1.11 1.05 0.98 0.94 0.81 0.68 0.65 0.49 0.35 0.35 0.36
0.65 0.68 0.74 0.76 0.77 0.82 1.03 1.23 1.25 1.34 1.47 1.67 1.88 1.96 1.88 1.90 1.95 1.94 1.90 1.89 1.88 1.83 1.72 1.59 1.51 1.45 1.40 1.39 1.40 1.43 1.37 1.30 1.24 1.18 1.12 1.09 1.02 0.87 0.82 0.73 0.51 0.44 0.39
0.62 0.68 0.71 0.66 0.66 0.71 0.84 1.02 1.13 1.24 1.30 1.44 1.59 1.75 1.83 1.82 1.85 1.87 1.84 1.76 1.68 1.60 1.58 1.57 1.51 1.44 1.37 1.35 1.36 1.39 1.36 1.31 1.27 1.20 1.16 1.14 1.09 0.99 0.97 0.93 0.73 0.59 0.47
0.48 0.52 0.59 0.62 0.62 0.63 0.70 0.77 0.82 0.91 0.99 1.07 1.19 1.31 1.51 1.61 1.59 1.64 1.64 1.62 1.54 1.52 1.52 1.50 1.50 1.50 1.47 1.41 1.38 1.38 1.36 1.34 1.26 1.16 1.10 1.06 1.00 0.99 1.00 1.00 0.99 0.91 0.70
0.47 0.49 0.55 0.57 0.61 0.63 0.67 0.68 0.69 0.73 0.83 0.86 0.93 0.97 1.12 1.27 1.32 1.38 1.37 1.31 1.32 1.38 1.39 1.38 1.38 1.39 1.40 1.38 1.37 1.34 1.31 1.30 1.27 1.21 1.14 1.04 0.92 0.90 0.91 0.94 1.01 1.12 1.02
0.45 0.44 0.50 0.53 0.56 0.61 0.64 0.63 0.64 0.65 0.75 0.81 0.85 0.86 0.90 0.98 1.11 1.20 1.14 1.12 1.14 1.18 1.22 1.20 1.20 1.21 1.22 1.24 1.27 1.23 1.19 1.18 1.14 1.14 1.14 1.10 1.02 0.97 0.97 1.00 1.06 1.15 1.21
0.45 0.46 0.49 0.52 0.56 0.61 0.61 0.58 0.62 0.63 0.68 0.73 0.73 0.73 0.76 0.81 0.87 0.94 0.97 0.96 1.00 1.01 1.02 1.03 1.04 1.03 1.05 1.09 1.13 1.09 1.07 1.09 1.08 1.07 1.10 1.11 1.10 1.11 1.09 1.12 1.17 1.23 1.31
0.45 0.44 0.44 0.49 0.53 0.54 0.50 0.49 0.55 0.58 0.63 0.66 0.64 0.63 0.65 0.68 0.71 0.75 0.80 0.81 0.85 0.88 0.90 0.91 0.92 0.89 0.87 0.91 0.95 0.98 0.97 0.97 0.98 1.01 1.07 1.09 1.10 1.16 1.18 1.20 1.23 1.25 1.25
0.33 0.33 0.34 0.36 0.37 0.37 0.37 0.41 0.45 0.43 0.45 0.48 0.47 0.49 0.50 0.54 0.60 0.63 0.64 0.66 0.72 0.77 0.80 0.81 0.83 0.84 0.82 0.83 0.84 0.85 0.86 0.87 0.88 0.88 0.92 0.93 0.98 1.04 1.06 1.11 1.15 1.16 1.15
0.25 0.27 0.28 0.26 0.28 0.29 0.31 0.34 0.32 0.34 0.36 0.36 0.36 0.38 0.41 0.44 0.48 0.50 0.49 0.50 0.54 0.60 0.64 0.69 0.72 0.73 0.75 0.78 0.81 0.83 0.83 0.81 0.80 0.80 0.82 0.85 0.90 0.94 0.99 1.05 1.07 1.09 1.10
0.19 0.22 0.23 0.22 0.24 0.24 0.25 0.26 0.27 0.33 0.38 0.38 0.37 0.37 0.37 0.39 0.42 0.43 0.44 0.43 0.43 0.44 0.47 0.53 0.61 0.66 0.68 0.72 0.76 0.79 0.81 0.82 0.81 0.83 0.88 0.92 1.02 1.03 1.00 0.97 0.95 0.97 1.02
0.15 0.16 0.17 0.18 0.19 0.20 0.23 0.27 0.31 0.39 0.44 0.47 0.42 0.39 0.38 0.38 0.35 0.34 0.34 0.35 0.36 0.37 0.40 0.45 0.49 0.56 0.62 0.79 0.78 0.73 0.74 0.81 0.85 0.87 0.86 0.90 0.99 0.97 0.96 0.91 0.87 0.88 0.96
0.12 0.13 0.13 0.15 0.18 0.22 0.28 0.34 0.39 0.46 0.48 0.51 0.47 0.42 0.38 0.36 0.33 0.30 0.31 0.33 0.35 0.38 0.42 0.44 0.48 0.53 0.67 0.83 0.80 0.83 0.76 0.78 0.83 0.85 0.83 0.79 0.75 0.78 0.70 0.75 0.80 0.81 0.81
0.08 0.08 0.10 0.11 0.13 0.18 0.26 0.33 0.39 0.51 0.54 0.53 0.51 0.49 0.49 0.49 0.51 0.51 0.52 0.52 0.51 0.53 0.58 0.63 0.65 0.69 0.78 0.83 0.75 0.72 0.67 0.70 0.72 0.70 0.68 0.64 0.59 0.57 0.57 0.60 0.66 0.59 0.55
0.05 0.06 0.06 0.07 0.08 0.10 0.17 0.25 0.37 0.52 0.64 0.69 0.68 0.68 0.71 0.75 0.79 0.81 0.81 0.80 0.81 0.81 0.79 0.76 0.72 0.68 0.69 0.69 0.63 0.59 0.54 0.55 0.55 0.52 0.51 0.50 0.48 0.54 0.62 0.58 0.53 0.49 0.47
0.08 0.07 0.07 0.08 0.10 0.13 0.19 0.32 0.48 0.63 0.73 0.76 0.79 0.83 0.89 0.95 0.92 0.90 0.87 0.79 0.74 0.73 0.72 0.70 0.67 0.60 0.54 0.49 0.44 0.42 0.39 0.38 0.36 0.35 0.35 0.41 0.42 0.52 0.59 0.52 0.49 0.47 0.40
0.18 0.18 0.18 0.21 0.23 0.26 0.35 0.48 0.59 0.68 0.71 0.71 0.72 0.75 0.74 0.75 0.73 0.70 0.67 0.62 0.56 0.50 0.46 0.43 0.39 0.35 0.33 0.32 0.31 0.31 0.29 0.29 0.31 0.31 0.29 0.31 0.41 0.46 0.50 0.50 0.44 0.44 0.47
0.22 0.29 0.35 0.37 0.38 0.40 0.46 0.53 0.55 0.55 0.53 0.50 0.48 0.45 0.41 0.37 0.37 0.38 0.38 0.37 0.34 0.30 0.26 0.24 0.22 0.20 0.20 0.22 0.24 0.28 0.31 0.33 0.32 0.30 0.28 0.30 0.42 0.48 0.48 0.45 0.45 0.51 0.54
0.09 0.14 0.20 0.24 0.25 0.25 0.27 0.29 0.27 0.23 0.20 0.17 0.15 0.14 0.12 0.11 0.11 0.12 0.13 0.16 0.19 0.18 0.17 0.16 0.17 0.17 0.17 0.19 0.23 0.26 0.32 0.37 0.35 0.31 0.34 0.37 0.42 0.44 0.43 0.44 0.47 0.48 0.45
0.04 0.04 0.06 0.07 0.07 0.08 0.09 0.09 0.07 0.05 0.04 0.04 0.03 0.04 0.04 0.04 0.06 0.07 0.09 0.11 0.12 0.13 0.14 0.16 0.16 0.16 0.16 0.17 0.20 0.24 0.30 0.36 0.38 0.37 0.37 0.39 0.40 0.40 0.39 0.41 0.42 0.41 0.41
0.03 0.04 0.04 0.04 0.05 0.05 0.05 0.05 0.05 0.05 0.05 0.04 0.04 0.04 0.05 0.06 0.06 0.07 0.08 0.10 0.11 0.13 0.17 0.18 0.19 0.21 0.21 0.19 0.27 0.34 0.35 0.38 0.42 0.46 0.44 0.40 0.38 0.36 0.35 0.35 0.35 0.37 0.39
0.05 0.05 0.05 0.06 0.07 0.07 0.08 0.09 0.09 0.09 0.08 0.08 0.07 0.08 0.08 0.09 0.09 0.10 0.11 0.13 0.14 0.16 0.19 0.20 0.21 0.20 0.23 0.27 0.34 0.38 0.41 0.46 0.53 0.57 0.50 0.39 0.34 0.33 0.34 0.35 0.37 0.38 0.39